QPF
0.00 0.00 0.00 0.00 0.00 0.00 0.00 0.00 0.00 0.00 0.00 0.00 0.00 0.00 0.00 0.00 0.00 0.00 0.00 0.00 0.00 0.00 0.00 0.00 0.00 0.00 0.00 0.00 0.00 0.00 0.00 0.00 0.00 0.00 0.00 0.00 0.00 0.00 0.00 0.00 0.00 0.01 0.02 0.00 0.00
0.00 0.00 0.00 0.00 0.00 0.00 0.00 0.00 0.00 0.00 0.00 0.00 0.00 0.00 0.00 0.00 0.00 0.00 0.00 0.00 0.00 0.00 0.00 0.00 0.00 0.00 0.00 0.00 0.00 0.00 0.00 0.00 0.00 0.00 0.00 0.00 0.00 0.00 0.00 0.00 0.00 0.01 0.01 0.02 0.00
0.00 0.00 0.00 0.00 0.00 0.00 0.00 0.00 0.00 0.00 0.00 0.00 0.00 0.00 0.00 0.00 0.00 0.00 0.00 0.00 0.00 0.00 0.00 0.00 0.00 0.00 0.00 0.00 0.00 0.00 0.00 0.00 0.00 0.00 0.00 0.00 0.00 0.00 0.00 0.00 0.00 0.00 0.00 0.01 0.00
0.00 0.00 0.00 0.00 0.00 0.00 0.00 0.00 0.00 0.00 0.00 0.00 0.00 0.00 0.00 0.00 0.00 0.00 0.00 0.00 0.00 0.00 0.00 0.00 0.00 0.00 0.00 0.00 0.00 0.00 0.00 0.00 0.00 0.00 0.00 0.00 0.00 0.00 0.00 0.00 0.00 0.00 0.00 0.00 0.00
0.00 0.00 0.00 0.00 0.00 0.00 0.00 0.00 0.00 0.00 0.00 0.00 0.00 0.00 0.00 0.00 0.00 0.00 0.00 0.00 0.00 0.00 0.00 0.00 0.00 0.00 0.00 0.00 0.00 0.00 0.00 0.00 0.00 0.00 0.00 0.00 0.00 0.00 0.00 0.00 0.00 0.00 0.00 0.00 0.00
0.00 0.00 0.00 0.00 0.00 0.00 0.00 0.00 0.00 0.00 0.00 0.00 0.00 0.00 0.00 0.00 0.00 0.00 0.00 0.00 0.00 0.00 0.00 0.00 0.00 0.00 0.00 0.00 0.00 0.00 0.00 0.00 0.00 0.00 0.00 0.00 0.00 0.00 0.00 0.00 0.00 0.00 0.00 0.00 0.00
0.00 0.00 0.00 0.00 0.00 0.00 0.00 0.00 0.00 0.00 0.00 0.00 0.00 0.00 0.00 0.00 0.00 0.00 0.00 0.00 0.00 0.00 0.00 0.00 0.00 0.00 0.00 0.00 0.00 0.00 0.00 0.00 0.00 0.00 0.00 0.00 0.00 0.00 0.00 0.00 0.00 0.00 0.01 0.00 0.00
0.00 0.00 0.00 0.00 0.00 0.00 0.00 0.00 0.00 0.00 0.00 0.00 0.00 0.00 0.00 0.00 0.00 0.00 0.00 0.00 0.00 0.00 0.00 0.00 0.00 0.00 0.00 0.00 0.00 0.00 0.00 0.00 0.00 0.00 0.00 0.00 0.00 0.00 0.00 0.00 0.00 0.00 0.00 0.00 0.00
0.00 0.00 0.00 0.00 0.00 0.00 0.00 0.00 0.00 0.00 0.00 0.00 0.00 0.00 0.00 0.00 0.00 0.00 0.00 0.00 0.00 0.00 0.00 0.00 0.00 0.00 0.00 0.00 0.00 0.00 0.00 0.00 0.00 0.00 0.00 0.00 0.00 0.00 0.00 0.01 0.00 0.00 0.00 0.00 0.00
0.00 0.00 0.00 0.00 0.00 0.00 0.00 0.00 0.00 0.00 0.00 0.00 0.00 0.00 0.00 0.00 0.00 0.00 0.00 0.00 0.00 0.00 0.00 0.00 0.00 0.00 0.00 0.00 0.00 0.00 0.00 0.00 0.00 0.00 0.00 0.00 0.00 0.00 0.00 0.00 0.00 0.00 0.00 0.00 0.00
0.00 0.00 0.00 0.00 0.00 0.00 0.00 0.00 0.00 0.00 0.00 0.00 0.00 0.00 0.00 0.00 0.00 0.00 0.00 0.00 0.00 0.00 0.00 0.00 0.00 0.00 0.00 0.00 0.00 0.00 0.00 0.00 0.00 0.00 0.00 0.00 0.00 0.00 0.00 0.00 0.01 0.00 0.00 0.00 0.00
0.00 0.00 0.00 0.00 0.00 0.00 0.00 0.00 0.00 0.00 0.00 0.00 0.00 0.00 0.00 0.00 0.00 0.00 0.00 0.00 0.00 0.00 0.00 0.00 0.00 0.00 0.00 0.00 0.00 0.00 0.00 0.00 0.00 0.00 0.00 0.00 0.00 0.00 0.00 0.00 0.00 0.00 0.00 0.00 0.00
0.00 0.00 0.00 0.00 0.00 0.00 0.00 0.00 0.00 0.00 0.00 0.00 0.00 0.00 0.00 0.00 0.00 0.00 0.00 0.00 0.00 0.00 0.00 0.00 0.00 0.00 0.00 0.00 0.00 0.00 0.00 0.00 0.00 0.00 0.00 0.00 0.00 0.00 0.00 0.00 0.00 0.00 0.00 0.00 0.00
0.00 0.00 0.00 0.00 0.00 0.00 0.00 0.00 0.00 0.00 0.00 0.00 0.00 0.00 0.00 0.00 0.00 0.00 0.00 0.00 0.00 0.00 0.00 0.00 0.00 0.00 0.00 0.00 0.00 0.00 0.00 0.00 0.00 0.00 0.00 0.00 0.00 0.00 0.00 0.00 0.00 0.00 0.00 0.00 0.00
0.00 0.00 0.00 0.00 0.00 0.00 0.00 0.00 0.00 0.00 0.00 0.00 0.00 0.00 0.00 0.00 0.00 0.00 0.00 0.00 0.00 0.00 0.00 0.00 0.00 0.00 0.00 0.00 0.00 0.00 0.00 0.00 0.00 0.00 0.00 0.00 0.00 0.00 0.00 0.00 0.00 0.00 0.00 0.00 0.00
0.00 0.00 0.00 0.00 0.00 0.00 0.00 0.00 0.00 0.00 0.00 0.00 0.00 0.00 0.00 0.00 0.00 0.00 0.00 0.00 0.00 0.00 0.00 0.00 0.00 0.00 0.00 0.00 0.00 0.00 0.00 0.00 0.00 0.00 0.00 0.00 0.00 0.00 0.00 0.00 0.00 0.00 0.00 0.00 0.00
0.00 0.00 0.00 0.00 0.00 0.00 0.00 0.00 0.00 0.00 0.00 0.00 0.00 0.00 0.00 0.00 0.00 0.00 0.00 0.00 0.00 0.00 0.00 0.00 0.00 0.00 0.00 0.00 0.00 0.00 0.00 0.00 0.00 0.00 0.00 0.00 0.00 0.00 0.00 0.00 0.00 0.00 0.00 0.00 0.00
0.00 0.00 0.00 0.00 0.00 0.00 0.00 0.00 0.00 0.00 0.00 0.00 0.00 0.00 0.00 0.00 0.00 0.00 0.00 0.00 0.00 0.00 0.00 0.00 0.00 0.00 0.00 0.00 0.00 0.00 0.00 0.00 0.00 0.00 0.00 0.00 0.00 0.00 0.00 0.00 0.00 0.00 0.00 0.00 0.02
0.00 0.00 0.00 0.00 0.00 0.00 0.00 0.00 0.00 0.00 0.00 0.00 0.00 0.00 0.00 0.00 0.00 0.00 0.00 0.00 0.00 0.00 0.00 0.00 0.00 0.00 0.00 0.00 0.00 0.00 0.00 0.00 0.00 0.00 0.00 0.00 0.00 0.00 0.00 0.00 0.00 0.00 0.00 0.00 0.02
0.00 0.00 0.00 0.00 0.00 0.00 0.00 0.00 0.00 0.00 0.00 0.00 0.00 0.00 0.00 0.00 0.00 0.00 0.00 0.00 0.00 0.00 0.00 0.00 0.00 0.00 0.00 0.00 0.00 0.00 0.00 0.00 0.00 0.00 0.00 0.00 0.00 0.00 0.00 0.00 0.00 0.00 0.00 0.00 0.00
0.00 0.00 0.00 0.00 0.00 0.00 0.00 0.00 0.00 0.00 0.00 0.00 0.00 0.00 0.00 0.00 0.00 0.00 0.00 0.00 0.00 0.00 0.00 0.00 0.00 0.00 0.00 0.00 0.00 0.00 0.00 0.00 0.00 0.00 0.00 0.00 0.00 0.00 0.00 0.00 0.00 0.00 0.00 0.00 0.00
0.00 0.00 0.00 0.00 0.00 0.00 0.00 0.00 0.00 0.00 0.00 0.00 0.00 0.00 0.00 0.00 0.00 0.00 0.00 0.00 0.00 0.00 0.00 0.00 0.00 0.00 0.00 0.00 0.00 0.00 0.00 0.00 0.00 0.00 0.00 0.00 0.00 0.00 0.00 0.00 0.00 0.00 0.00 0.00 0.00
0.00 0.00 0.00 0.00 0.00 0.00 0.00 0.00 0.00 0.00 0.00 0.00 0.00 0.00 0.00 0.00 0.00 0.00 0.00 0.00 0.00 0.00 0.00 0.00 0.00 0.00 0.00 0.00 0.00 0.00 0.00 0.00 0.00 0.00 0.00 0.00 0.00 0.00 0.00 0.00 0.00 0.00 0.00 0.00 0.00
0.00 0.00 0.00 0.00 0.00 0.00 0.00 0.00 0.00 0.00 0.00 0.00 0.00 0.00 0.00 0.00 0.00 0.00 0.00 0.00 0.00 0.00 0.00 0.00 0.00 0.00 0.00 0.00 0.00 0.00 0.00 0.00 0.00 0.00 0.00 0.00 0.00 0.00 0.00 0.00 0.00 0.00 0.00 0.00 0.00
0.00 0.00 0.00 0.00 0.00 0.00 0.00 0.00 0.00 0.00 0.00 0.00 0.00 0.00 0.00 0.00 0.00 0.00 0.00 0.00 0.00 0.00 0.00 0.00 0.00 0.00 0.00 0.00 0.00 0.00 0.00 0.00 0.00 0.00 0.00 0.00 0.00 0.00 0.00 0.00 0.00 0.00 0.00 0.00 0.00
0.00 0.00 0.00 0.00 0.00 0.00 0.00 0.00 0.00 0.00 0.00 0.00 0.00 0.00 0.00 0.00 0.00 0.00 0.00 0.00 0.00 0.00 0.00 0.00 0.00 0.00 0.00 0.00 0.00 0.00 0.00 0.00 0.00 0.00 0.00 0.00 0.00 0.00 0.00 0.00 0.00 0.00 0.00 0.00 0.00
0.00 0.00 0.00 0.00 0.00 0.00 0.00 0.00 0.00 0.00 0.00 0.00 0.00 0.00 0.00 0.00 0.00 0.00 0.00 0.00 0.00 0.00 0.00 0.00 0.00 0.00 0.00 0.00 0.00 0.00 0.00 0.00 0.00 0.00 0.00 0.00 0.00 0.00 0.00 0.00 0.00 0.00 0.00 0.00 0.00
MSLP
1016.70 1016.43 1016.22 1016.00 1015.81 1015.62 1015.42 1015.23 1014.98 1014.75 1014.55 1014.25 1013.96 1013.57 1013.17 1012.73 1011.99 1011.82 1010.69 1008.52 1008.52 1008.59 1008.56 1008.87 1008.95 1009.06 1009.31 1009.50 1009.65 1010.22 1011.17 1011.56 1011.11 1010.68 1009.91 1009.82 1009.91 1009.95 1009.72 1010.01 1010.24 1010.64 1011.19 1011.72 1012.90
1016.70 1016.48 1016.26 1016.01 1015.74 1015.51 1015.35 1015.14 1014.87 1014.66 1014.45 1014.15 1013.89 1013.54 1013.17 1012.84 1012.35 1010.84 1007.93 1007.85 1008.33 1008.55 1008.77 1008.97 1009.08 1009.10 1009.44 1009.62 1009.81 1010.31 1010.97 1010.46 1009.81 1009.54 1009.47 1009.52 1009.71 1009.84 1009.99 1010.30 1010.58 1011.11 1011.59 1012.12 1012.93
1016.75 1016.49 1016.27 1016.03 1015.76 1015.46 1015.29 1015.06 1014.79 1014.55 1014.32 1014.04 1013.75 1013.32 1012.97 1012.74 1011.82 1008.75 1007.35 1007.53 1008.32 1008.51 1008.62 1008.84 1009.02 1009.18 1009.59 1009.83 1009.76 1009.92 1009.97 1009.32 1008.74 1008.70 1008.85 1009.24 1009.68 1009.78 1010.08 1010.45 1010.31 1010.76 1011.72 1012.34 1013.12
1016.76 1016.49 1016.23 1015.96 1015.69 1015.48 1015.22 1014.96 1014.67 1014.48 1014.20 1013.96 1013.62 1013.18 1012.81 1012.54 1010.72 1007.86 1007.46 1007.62 1007.98 1008.32 1008.49 1008.77 1009.04 1009.36 1009.80 1009.94 1009.58 1009.60 1008.80 1008.74 1008.33 1008.35 1008.66 1009.18 1009.32 1009.69 1009.81 1009.82 1009.68 1010.34 1010.98 1012.03 1012.94
1016.73 1016.41 1016.11 1015.87 1015.61 1015.38 1015.14 1014.90 1014.61 1014.36 1014.10 1013.84 1013.51 1013.11 1012.62 1011.88 1009.58 1007.72 1007.70 1007.72 1008.09 1008.44 1008.68 1008.98 1009.29 1009.63 1009.93 1009.81 1009.42 1009.08 1008.50 1008.04 1007.69 1008.12 1008.60 1008.85 1009.25 1009.64 1009.73 1009.82 1009.97 1010.59 1011.44 1011.88 1012.51
1016.64 1016.33 1016.04 1015.71 1015.47 1015.20 1014.96 1014.75 1014.51 1014.24 1014.02 1013.74 1013.44 1013.23 1012.72 1011.09 1008.15 1007.87 1007.96 1008.20 1008.23 1008.46 1008.91 1009.01 1009.24 1009.43 1009.74 1009.70 1009.60 1008.90 1008.38 1007.92 1007.57 1007.84 1008.36 1008.95 1009.42 1009.67 1009.75 1009.83 1010.32 1010.78 1011.37 1011.81 1012.26
1016.48 1016.16 1015.84 1015.58 1015.34 1015.09 1014.83 1014.54 1014.26 1013.98 1013.77 1013.62 1013.43 1013.26 1012.43 1009.54 1008.15 1008.15 1008.04 1008.20 1008.35 1008.53 1008.97 1009.03 1009.05 1009.37 1009.67 1009.62 1009.33 1008.92 1008.85 1008.16 1008.00 1008.21 1008.60 1008.82 1009.71 1009.70 1009.68 1009.83 1009.91 1010.39 1011.01 1011.48 1011.77
1016.26 1015.92 1015.60 1015.35 1015.12 1014.85 1014.62 1014.37 1014.03 1013.73 1013.52 1013.41 1013.33 1013.18 1011.32 1008.45 1008.28 1008.31 1008.04 1008.05 1008.43 1008.60 1008.79 1008.90 1009.04 1009.47 1009.87 1009.77 1009.57 1009.50 1009.51 1009.39 1008.36 1008.36 1008.60 1009.17 1009.30 1009.34 1009.55 1009.90 1010.38 1010.40 1010.56 1010.67 1011.34
1016.13 1015.76 1015.41 1015.14 1014.89 1014.63 1014.31 1013.94 1013.44 1013.21 1013.36 1013.31 1013.36 1012.82 1010.36 1008.20 1008.20 1007.63 1007.78 1007.98 1008.29 1008.66 1008.76 1008.84 1009.24 1010.07 1010.22 1010.67 1010.76 1010.72 1010.55 1010.00 1009.13 1008.47 1008.83 1009.40 1009.40 1009.38 1009.55 1009.79 1010.22 1010.41 1010.66 1010.66 1010.83
1015.93 1015.59 1015.28 1014.97 1014.70 1014.38 1013.87 1013.49 1013.18 1013.21 1013.43 1013.38 1012.92 1012.60 1009.49 1008.21 1007.57 1007.57 1007.87 1007.96 1008.30 1008.58 1008.95 1009.29 1010.17 1010.74 1011.45 1011.57 1011.90 1011.56 1011.15 1010.39 1009.85 1008.78 1008.80 1009.14 1009.10 1009.54 1009.48 1009.70 1009.62 1010.10 1010.22 1010.19 1010.23
1015.64 1015.33 1015.07 1014.80 1014.58 1014.41 1013.91 1013.45 1013.64 1013.35 1012.87 1011.45 1010.92 1010.22 1008.88 1007.85 1007.43 1007.52 1007.73 1008.16 1008.49 1008.93 1009.64 1010.19 1010.94 1011.18 1011.24 1011.46 1011.33 1011.47 1011.34 1010.97 1008.99 1008.30 1008.85 1008.69 1008.87 1008.96 1009.18 1009.96 1010.14 1009.97 1009.92 1009.99 1009.71
1015.21 1014.92 1014.76 1014.61 1014.46 1014.37 1014.46 1013.46 1011.73 1011.40 1011.19 1010.20 1010.07 1009.54 1008.65 1008.19 1007.88 1007.42 1007.49 1008.21 1008.92 1009.59 1010.08 1010.78 1010.81 1010.34 1010.69 1010.78 1011.03 1011.18 1011.16 1010.15 1008.91 1008.24 1008.58 1008.85 1008.94 1008.53 1008.84 1008.95 1009.53 1009.80 1009.67 1009.55 1009.67
1014.93 1014.58 1014.40 1014.35 1014.24 1014.38 1013.96 1012.17 1011.00 1010.89 1010.97 1009.61 1009.30 1008.77 1007.95 1007.91 1007.63 1007.33 1007.46 1008.04 1008.80 1009.77 1010.31 1010.75 1010.13 1009.80 1010.13 1010.23 1010.56 1010.68 1010.76 1009.90 1009.57 1008.95 1009.04 1009.28 1009.03 1008.40 1008.15 1008.60 1009.00 1008.93 1008.81 1009.11 1009.18
1014.42 1014.14 1014.04 1014.05 1014.57 1013.67 1012.74 1010.92 1010.89 1011.10 1010.90 1009.31 1008.59 1007.27 1007.41 1007.28 1007.19 1006.77 1007.06 1007.74 1008.66 1009.27 1010.17 1010.28 1009.48 1009.48 1009.61 1009.73 1009.82 1009.81 1009.29 1009.29 1009.51 1009.74 1009.93 1009.93 1010.03 1008.62 1008.31 1008.24 1008.33 1008.23 1008.39 1008.32 1008.64
1013.88 1013.68 1013.68 1013.96 1013.72 1013.05 1011.31 1010.85 1010.78 1010.90 1009.96 1008.21 1007.49 1006.57 1006.97 1007.17 1006.91 1006.83 1006.81 1007.24 1008.20 1008.97 1009.78 1009.32 1008.90 1008.87 1008.91 1008.48 1008.76 1009.04 1008.96 1009.51 1009.85 1010.43 1010.60 1010.89 1011.03 1008.59 1008.55 1008.06 1007.76 1007.37 1007.24 1007.52 1007.99
1013.41 1013.24 1013.37 1013.80 1013.69 1011.58 1010.91 1010.72 1010.73 1010.47 1008.69 1007.18 1006.60 1006.73 1007.09 1006.90 1006.76 1006.85 1006.96 1007.19 1008.02 1008.81 1009.25 1008.99 1008.31 1008.17 1007.77 1007.45 1008.04 1008.55 1009.33 1010.08 1010.94 1011.27 1011.70 1011.40 1011.23 1009.16 1008.66 1008.12 1007.34 1007.03 1006.71 1006.86 1007.31
1012.63 1012.53 1013.05 1012.68 1011.86 1010.87 1010.81 1010.85 1010.72 1009.58 1007.93 1007.08 1006.65 1006.68 1006.90 1007.09 1006.98 1007.03 1007.50 1008.03 1008.70 1009.44 1009.80 1008.89 1007.90 1007.19 1007.07 1007.63 1007.98 1008.79 1010.15 1011.27 1012.13 1012.45 1012.46 1011.58 1011.29 1009.34 1008.04 1007.13 1006.64 1006.30 1006.26 1006.14 1006.68
1012.10 1011.96 1012.13 1011.69 1011.10 1010.94 1010.83 1010.81 1010.17 1008.79 1007.70 1006.68 1006.51 1006.73 1006.98 1006.99 1007.12 1007.47 1008.01 1008.69 1008.99 1009.50 1010.10 1009.57 1008.18 1006.95 1006.79 1006.87 1007.61 1008.66 1009.77 1011.12 1012.35 1013.29 1012.58 1011.56 1010.55 1008.24 1007.54 1006.98 1006.55 1005.94 1005.59 1005.80 1006.47
1012.31 1012.26 1012.09 1010.60 1010.70 1011.37 1011.10 1011.21 1010.23 1008.91 1007.72 1006.99 1006.67 1006.84 1007.09 1007.04 1007.30 1007.64 1008.17 1008.58 1008.38 1008.63 1009.59 1009.39 1008.28 1006.75 1006.39 1006.34 1007.09 1008.53 1009.51 1010.12 1011.78 1013.26 1013.20 1011.60 1009.93 1008.04 1007.50 1006.79 1006.72 1006.31 1006.00 1006.22 1006.48
1012.07 1011.67 1011.14 1010.28 1010.46 1010.63 1011.17 1011.30 1009.94 1008.60 1007.47 1006.91 1006.89 1007.05 1007.46 1007.66 1007.86 1008.05 1008.05 1008.07 1008.07 1008.06 1008.12 1009.12 1008.74 1007.10 1006.16 1006.22 1006.97 1007.48 1008.73 1010.16 1011.72 1013.11 1013.34 1011.94 1010.72 1009.37 1007.97 1007.71 1007.30 1006.61 1006.18 1006.03 1005.95
1011.52 1011.39 1010.82 1010.47 1010.62 1011.01 1011.77 1011.11 1009.74 1008.08 1007.59 1007.04 1007.04 1007.43 1007.87 1008.08 1008.27 1008.43 1008.46 1008.47 1008.29 1008.19 1008.28 1008.80 1009.13 1007.61 1007.36 1006.77 1007.06 1007.78 1008.64 1010.19 1011.65 1012.67 1013.14 1012.56 1010.89 1008.68 1008.49 1008.13 1007.66 1006.85 1006.26 1005.79 1005.63
1011.55 1011.97 1010.87 1010.55 1011.30 1012.39 1011.94 1010.94 1009.70 1008.43 1007.84 1007.32 1007.38 1007.81 1008.30 1008.64 1008.82 1008.80 1008.81 1008.68 1008.51 1008.33 1008.73 1008.85 1009.41 1009.21 1008.04 1006.92 1006.93 1007.37 1008.32 1009.51 1011.51 1012.77 1013.09 1012.42 1010.03 1007.91 1008.03 1007.90 1007.43 1006.62 1005.83 1005.49 1005.42
1012.70 1012.45 1011.01 1010.85 1012.26 1012.87 1011.91 1010.94 1009.95 1009.14 1008.87 1008.38 1008.62 1008.69 1008.88 1009.47 1009.72 1009.50 1009.28 1008.86 1008.79 1008.83 1009.03 1009.15 1009.59 1009.76 1008.71 1007.95 1007.17 1007.59 1008.32 1009.42 1010.45 1011.47 1012.28 1012.06 1009.63 1007.87 1007.84 1007.70 1007.42 1007.07 1006.45 1005.67 1005.51
1013.42 1013.50 1012.71 1012.56 1013.26 1013.19 1012.88 1011.86 1010.59 1009.66 1009.62 1009.48 1009.63 1009.39 1009.73 1010.18 1010.29 1010.29 1010.00 1009.49 1009.38 1009.38 1009.52 1009.51 1010.30 1010.01 1009.48 1008.58 1008.09 1008.10 1008.23 1008.97 1009.81 1011.11 1011.68 1011.08 1009.60 1008.24 1007.65 1007.46 1006.91 1007.11 1006.94 1006.77 1006.03
1014.38 1015.71 1015.49 1014.73 1014.47 1014.03 1013.46 1012.66 1011.66 1010.85 1010.31 1010.18 1010.42 1010.54 1010.62 1010.85 1010.87 1010.76 1010.74 1010.55 1010.02 1009.97 1009.89 1010.37 1010.86 1010.46 1009.67 1009.09 1008.49 1007.98 1008.12 1008.68 1009.52 1009.99 1010.34 1009.92 1009.69 1008.39 1007.92 1007.58 1006.97 1007.12 1007.11 1006.99 1006.80
1016.18 1016.66 1016.05 1015.67 1015.09 1014.43 1014.04 1013.40 1012.52 1011.83 1011.29 1011.07 1011.08 1011.02 1011.01 1011.15 1011.02 1011.12 1011.14 1011.28 1010.99 1010.70 1010.87 1011.25 1011.37 1011.16 1010.48 1009.48 1009.09 1008.55 1008.01 1008.42 1009.05 1009.66 1009.91 1009.85 1009.67 1008.79 1008.00 1007.49 1007.23 1007.48 1007.35 1007.09 1007.18
1017.30 1017.09 1016.80 1016.54 1015.80 1015.20 1014.64 1013.83 1013.03 1012.56 1011.85 1011.49 1011.28 1011.26 1011.36 1011.36 1011.20 1010.99 1010.99 1011.09 1011.05 1011.40 1011.71 1011.87 1011.88 1012.10 1011.46 1010.45 1009.75 1009.29 1008.56 1008.33 1008.79 1009.54 1010.04 1010.29 1009.74 1009.44 1008.63 1008.20 1008.62 1008.38 1008.39 1008.09 1007.63
Thickness
5739 5742 5745 5747 5749 5752 5754 5756 5759 5761 5764 5767 5770 5775 5779 5784 5791 5793 5795 5819 5821 5823 5824 5819 5816 5814 5811 5802 5805 5798 5758 5748 5765 5765 5781 5792 5786 5795 5802 5789 5792 5792 5783 5785 5780
5738 5741 5744 5747 5750 5753 5755 5758 5761 5763 5766 5769 5772 5776 5780 5785 5789 5794 5827 5829 5825 5824 5818 5809 5803 5807 5795 5797 5795 5779 5753 5766 5787 5788 5785 5791 5790 5789 5787 5783 5782 5782 5783 5784 5779
5738 5741 5744 5748 5751 5754 5756 5759 5762 5765 5768 5772 5775 5780 5784 5787 5792 5808 5833 5832 5827 5826 5823 5817 5811 5804 5790 5790 5790 5783 5765 5786 5795 5796 5798 5791 5787 5795 5782 5773 5785 5778 5776 5779 5774
5741 5743 5745 5749 5752 5755 5758 5762 5765 5768 5771 5775 5778 5783 5787 5789 5775 5824 5833 5833 5831 5828 5822 5813 5803 5792 5781 5775 5791 5777 5795 5794 5800 5799 5795 5785 5793 5786 5787 5789 5800 5794 5790 5781 5773
5743 5746 5749 5752 5755 5758 5761 5764 5768 5771 5774 5777 5780 5784 5790 5788 5796 5831 5831 5832 5830 5825 5814 5806 5795 5788 5776 5779 5786 5783 5794 5801 5806 5800 5795 5795 5787 5785 5785 5794 5799 5793 5785 5781 5776
5744 5748 5751 5755 5758 5761 5764 5767 5770 5773 5775 5778 5781 5784 5788 5778 5827 5830 5829 5827 5825 5820 5810 5809 5799 5797 5786 5783 5779 5793 5792 5795 5804 5799 5796 5784 5783 5786 5788 5795 5791 5791 5784 5781 5776
5746 5749 5752 5756 5760 5763 5766 5769 5773 5776 5778 5779 5781 5784 5784 5794 5827 5828 5829 5824 5824 5820 5807 5811 5810 5798 5793 5781 5795 5794 5780 5790 5795 5793 5787 5789 5770 5772 5789 5793 5791 5788 5786 5785 5781
5746 5750 5753 5757 5760 5764 5767 5770 5774 5777 5779 5780 5781 5782 5781 5822 5825 5825 5827 5823 5823 5821 5817 5815 5813 5799 5789 5792 5785 5777 5771 5751 5786 5791 5790 5781 5754 5782 5788 5787 5783 5786 5785 5787 5785
5746 5750 5753 5757 5760 5764 5767 5772 5776 5778 5778 5779 5779 5781 5783 5823 5816 5827 5827 5817 5817 5816 5816 5817 5806 5785 5784 5766 5751 5753 5742 5751 5763 5789 5783 5775 5762 5780 5785 5785 5779 5782 5782 5781 5782
5744 5748 5752 5755 5759 5763 5768 5773 5775 5776 5775 5776 5780 5775 5803 5805 5819 5822 5824 5821 5810 5808 5800 5794 5776 5763 5753 5746 5722 5740 5740 5749 5748 5778 5781 5771 5769 5773 5781 5782 5782 5780 5782 5783 5782
5744 5747 5750 5753 5756 5759 5766 5770 5769 5769 5773 5783 5789 5791 5802 5815 5823 5816 5818 5809 5806 5793 5771 5776 5758 5747 5755 5757 5761 5754 5746 5742 5770 5787 5775 5772 5775 5775 5780 5774 5770 5775 5776 5777 5783
5744 5746 5748 5750 5752 5755 5756 5766 5778 5783 5772 5790 5790 5791 5802 5809 5795 5809 5818 5793 5785 5766 5773 5758 5747 5769 5771 5768 5760 5752 5744 5748 5769 5787 5779 5772 5767 5780 5781 5780 5776 5771 5774 5777 5779
5742 5745 5747 5749 5751 5751 5753 5768 5781 5784 5764 5783 5788 5789 5799 5804 5793 5796 5807 5793 5781 5763 5762 5748 5766 5778 5773 5767 5758 5748 5742 5751 5756 5776 5776 5768 5758 5774 5786 5782 5780 5781 5783 5781 5780
5742 5746 5748 5749 5749 5754 5761 5777 5778 5778 5742 5771 5781 5796 5800 5803 5793 5813 5811 5798 5781 5764 5758 5758 5777 5773 5766 5758 5760 5746 5769 5771 5765 5760 5734 5763 5723 5763 5775 5776 5780 5784 5782 5784 5785
5745 5748 5749 5747 5750 5757 5773 5776 5778 5773 5720 5780 5783 5811 5800 5790 5797 5800 5813 5799 5774 5772 5766 5762 5775 5770 5766 5774 5778 5762 5780 5772 5767 5752 5749 5745 5728 5757 5770 5774 5778 5786 5792 5791 5788
5746 5749 5749 5747 5748 5766 5773 5775 5772 5736 5730 5772 5786 5779 5780 5787 5791 5794 5794 5802 5793 5775 5771 5768 5789 5783 5779 5791 5784 5786 5771 5757 5743 5735 5721 5739 5738 5748 5762 5774 5782 5790 5795 5795 5794
5750 5753 5750 5754 5765 5770 5772 5768 5732 5724 5772 5769 5771 5777 5775 5771 5779 5783 5774 5767 5754 5743 5742 5761 5773 5790 5795 5779 5783 5767 5743 5708 5717 5708 5715 5731 5733 5748 5775 5788 5792 5793 5797 5802 5799
5753 5756 5756 5761 5766 5769 5769 5748 5732 5758 5758 5783 5777 5775 5766 5773 5775 5773 5761 5751 5765 5753 5733 5734 5736 5783 5791 5784 5769 5757 5747 5712 5710 5702 5715 5736 5733 5763 5789 5795 5799 5803 5808 5806 5798
5751 5752 5755 5767 5769 5764 5756 5719 5733 5753 5769 5771 5775 5764 5765 5776 5775 5770 5759 5753 5766 5765 5741 5733 5744 5790 5794 5795 5786 5761 5743 5758 5717 5708 5709 5727 5754 5782 5787 5793 5793 5798 5802 5801 5798
5753 5758 5761 5769 5769 5765 5739 5724 5743 5763 5777 5779 5763 5769 5756 5762 5764 5762 5758 5774 5774 5777 5782 5762 5739 5781 5794 5798 5789 5779 5770 5740 5721 5718 5712 5721 5736 5742 5773 5778 5784 5794 5797 5800 5804
5758 5753 5762 5766 5767 5750 5725 5729 5751 5774 5775 5774 5768 5762 5762 5762 5759 5757 5762 5774 5780 5778 5776 5764 5753 5771 5777 5777 5771 5765 5755 5736 5729 5714 5703 5700 5727 5767 5773 5778 5781 5793 5800 5805 5806
5755 5738 5761 5765 5739 5718 5730 5745 5761 5771 5776 5778 5776 5770 5763 5760 5757 5758 5757 5766 5776 5778 5763 5767 5739 5736 5764 5783 5783 5779 5765 5750 5724 5725 5702 5704 5726 5789 5784 5785 5790 5800 5809 5812 5813
5739 5737 5759 5760 5721 5723 5736 5747 5760 5760 5759 5764 5759 5763 5762 5750 5749 5750 5751 5771 5770 5766 5759 5763 5736 5719 5738 5756 5776 5769 5763 5742 5731 5723 5710 5708 5729 5787 5782 5783 5787 5794 5801 5808 5811
5735 5728 5736 5736 5725 5731 5726 5735 5744 5761 5754 5756 5751 5757 5751 5739 5741 5741 5742 5758 5761 5761 5762 5756 5728 5731 5717 5739 5754 5755 5762 5754 5743 5718 5714 5717 5745 5771 5784 5785 5791 5791 5796 5796 5802
5722 5708 5711 5715 5720 5720 5723 5728 5733 5735 5749 5748 5744 5742 5740 5733 5730 5734 5738 5739 5752 5751 5751 5741 5725 5733 5738 5739 5750 5756 5758 5747 5741 5740 5733 5743 5738 5764 5774 5782 5791 5791 5793 5792 5794
5706 5702 5704 5705 5708 5721 5714 5721 5724 5728 5735 5734 5733 5738 5738 5731 5733 5731 5733 5728 5730 5740 5739 5729 5717 5722 5725 5738 5733 5741 5753 5747 5742 5740 5733 5742 5738 5761 5769 5781 5787 5781 5781 5788 5788
5694 5697 5699 5696 5702 5709 5708 5716 5722 5723 5735 5738 5735 5732 5728 5732 5739 5739 5739 5737 5737 5731 5722 5720 5712 5705 5704 5719 5720 5713 5735 5744 5739 5732 5733 5726 5741 5746 5756 5767 5763 5767 5768 5774 5780